Flag for Slovenia Weather past 2 weeks in Maribor, Slovenia

Now
67 °F

Overcast.


Feels Like: 67 °F
Forecast: 57 / 75 °F
Wind: 1 mph from South

Location: Maribor / Slivnica

Current Time: Sep 20, 2014 at 12:04:57 PM

Latest Report: Sep 20, 2014 at 11:00 AM


Visibility: 16 mi

Pressure: 30.00 "Hg

Humidity: 78%

Dew point: 60 °F

Location of MariborLocation

Historic Weather in Maribor — Graph

°F

Maribor temperature yesterday

Maximum temperature yesterday: 75 °F (at 3:00 PM)
Minimum temperature yesterday: 51 °F (at 7:00 AM)
Average temperature yesterday: 66 °F

Past Weeks' High & Low Weather Summary

 TemperatureHumidityPressure
High79 °F (Sep 9, 2:00 PM)100% (Sep 17, 9:00 AM)30.13 "Hg (Sep 17, 9:00 AM)
Low50 °F (Sep 17, 6:00 AM)52% (Sep 8, 3:00 PM)29.85 "Hg (Sep 12, 12:00 AM)
Average61 °F88%29.99 "Hg
* Reported Sep 5 10:00 AM — Sep 20 10:00 AM, Maribor, Weather by CustomWeather, © 2014

Note: Actual official high and low records may vary slightly from our data, if they occured in-between our weather recording intervals... More about our weather records

Advertising

Maribor weather history for previous 24 hours

 ConditionsComfort  
Time TempWeatherWind HumidityBarometerVisibility
10:00 AM
Sep 20
65 °FOvercast.1 mph84%29.98 "Hg12 mi
9:00 AM63 °FPartly sunny.1 mph89%29.98 "Hg12 mi
8:00 AM60 °FPartly sunny.2 mph94%29.98 "Hg12 mi
7:00 AM57 °FPartly sunny.1 mph94%29.99 "Hg12 mi
6:00 AM56 °FPassing clouds.2 mph94%29.99 "Hg12 mi
5:00 AM57 °FFog.1 mph92%30.00 "HgN/A
4:00 AM61 °FCool.5 mph85%30.00 "HgN/A
3:00 AM63 °FMild.8 mph84%29.98 "HgN/A
2:00 AM60 °FFog.5 mph88%30.00 "HgN/A
1:00 AM65 °FMild.3 mph78%29.99 "HgN/A
12:00 AM65 °FMild.7 mph80%30.01 "HgN/A
10:00 PM
Sep 19
66 °FMild.5 mph72%30.00 "HgN/A
9:00 PM67 °FPassing clouds.8 mph74%30.00 "Hg12 mi
8:00 PM67 °FPassing clouds.7 mph72%29.98 "Hg12 mi
7:00 PM69 °FScattered clouds.6 mph69%29.97 "Hg12 mi
6:00 PM72 °FScattered clouds.6 mph62%29.97 "Hg12 mi
5:00 PM73 °FOvercast.7 mph59%29.96 "Hg12 mi
4:00 PM74 °FPartly sunny.8 mph55%29.97 "Hg12 mi
3:00 PM75 °FPartly sunny.9 mph55%29.98 "Hg19 mi
2:00 PM75 °FPartly sunny.8 mph53%29.98 "Hg19 mi
1:00 PM74 °FScattered clouds.6 mph55%30.00 "Hg9 mi
Weather by CustomWeather, © 2014

See weather overviewHow to use our weather pages